SCP
-0 -0 -0 -0 -0 0 0 0 0 0 0 0 0 0 0 0 0 0 0 0 0 -0 -0 -0 -0 -0 0 0 0 0 -0 -0 -0 0 0 0 0 0 0 0 0 0 -0 0 0 0 0
-0 -0 -0 -0 -0 -0 0 0 0 0 0 0 0 0 0 0 -0 0 0 0 0 -0 -0 -0 -0 -0 0 0 0 0 -0 -0 -0 0 0 0 0 0 0 0 0 0 0 0 0 0 0
-0 -0 -0 -0 -0 -0 -0 -0 0 0 0 0 0 0 0 0 -0 -0 0 0 0 0 -0 0 0 0 0 -0 0 0 0 -0 0 0 0 -0 0 0 0 0 -0 0 0 0 0 0 0
-0 -0 -0 -0 -0 -0 -0 -0 -0 0 0 0 0 0 0 0 0 0 0 0 0 0 0 0 0 0 0 0 0 0 0 0 0 -0 0 0 0 0 0 0 0 0 0 0 0 0 0
-0 -0 -0 -0 -0 -0 -0 -0 -0 -0 -0 0 0 0 0 0 0 0 0 -0 0 0 0 0 0 0 -0 -0 0 0 0 0 0 0 0 0 0 0 0 0 0 0 0 0 0 0 0
-0 -0 -0 -0 -0 -0 -0 -0 -0 -0 -0 0 0 0 0 0 0 0 -0 0 0 0 0 0 0 0 0 0 0 0 -0 0 0 0 0 0 0 0 0 0 0 0 0 -0 0 0 0
-0 -0 -0 -0 -0 -0 -0 -0 -0 -0 -0 0 0 0 0 0 0 0 0 0 0 0 0 -0 -0 0 0 0 0 0 -0 0 0 0 0 0 0 0 0 0 0 0 0 0 0 0 0
-0 -0 -0 -0 -0 -0 -0 -0 -0 -0 -0 0 0 0 0 0 0 0 0 0 0 0 0 -0 0 0 0 0 0 0 -0 0 0 0 0 0 0 0 0 0 0 0 0 0 0 0 0
0 0 -0 -0 -0 -0 -0 -0 -0 -0 -0 0 0 0 0 0 0 0 0 0 0 0 0 0 -0 -0 -0 0 -0 -0 0 0 0 0 0 0 0 0 0 0 0 0 0 0 0 0 0
0 0 0 -0 -0 -0 -0 -0 -0 -0 -0 0 0 0 0 0 0 0 0 0 0 -0 0 0 -0 -0 -0 0 0 -0 -0 0 0 0 0 0 0 0 0 0 0 0 0 0 0 0 0
0 0 0 0 -0 -0 -0 -0 -0 -0 -0 0 0 0 0 0 0 0 0 0 0 0 0 0 -0 0 -0 0 0 -0 0 0 0 0 0 0 0 0 0 0 0 0 0 0 0 0 0
0 0 0 0 0 -0 -0 -0 -0 -0 -0 0 0 0 0 0 0 0 0 0 0 0 0 0 -0 -0 0 0 0 0 -0 -0 0 0 0 0 0 0 0 0 0 0 0 0 0 0 0
0 0 0 0 0 0 0 -0 -0 -0 -0 -0 0 0 0 0 0 0 0 0 0 0 0 0 0 -0 0 0 0 0 0 -0 0 0 0 0 0 0 0 0 0 0 0 0 0 0 0
0 0 0 0 0 0 0 0 -0 -0 -0 -0 0 0 0 0 0 0 0 0 0 0 0 0 0 0 0 0 -0 0 0 0 0 0 0 0 0 0 0 0 0 0 0 0 0 0 0
0 0 0 0 0 0 0 0 0 -0 -0 -0 0 0 0 0 0 0 0 0 0 0 0 0 0 0 0 0 0 0 0 0 0 0 0 0 0 0 0 0 0 0 0 0 0 0 0
0 0 0 0 0 0 0 0 0 0 -0 0 0 0 0 0 0 0 0 0 0 0 0 0 0 0 0 0 0 0 0 0 0 0 0 0 0 0 0 0 0 0 0 0 0 0 0
0 0 0 0 0 0 0 0 0 0 0 0 0 0 0 0 0 0 0 0 0 0 0 0 0 0 0 0 0 0 0 0 0 0 0 0 0 0 0 0 0 0 0 0 0 0 0
0 0 0 0 0 0 0 0 0 0 0 0 0 0 0 0 0 0 0 0 0 0 0 0 0 0 0 0 0 0 0 0 0 0 0 0 0 0 0 0 0 0 0 0 0 0 0
0 0 0 0 0 0 0 0 0 0 0 0 0 0 0 0 0 0 0 0 0 0 0 0 0 0 0 0 0 0 0 0 0 0 0 0 0 0 0 0 0 0 0 0 0 0 0
0 0 0 0 0 0 0 0 0 0 0 0 0 0 0 0 0 0 0 0 0 0 0 0 0 0 0 0 0 0 0 0 0 0 0 0 0 0 0 0 0 0 0 0 0 0 0
0 0 0 0 0 0 0 0 0 0 0 0 0 0 0 0 0 0 0 0 0 0 0 0 0 0 0 0 0 0 0 0 0 0 0 0 0 0 0 0 0 0 0 0 0 0 0
0 0 0 0 0 0 0 0 0 0 0 0 0 0 0 0 0 0 0 0 0 0 0 0 0 0 0 0 0 0 0 0 0 0 0 0 0 0 0 0 0 0 0 0 0 0 0
0 0 0 0 0 0 0 0 0 0 0 0 0 0 0 0 0 0 0 0 0 0 0 0 0 0 0 0 0 0 0 0 0 0 0 0 0 0 0 0 0 0 0 0 0 0 0
0 0 0 0 0 0 0 0 0 0 0 0 0 0 0 0 0 0 0 0 0 0 0 0 0 0 0 0 0 0 0 0 0 0 0 0 0 0 0 0 0 0 0 0 0 0 0
0 0 0 0 0 0 0 0 0 0 0 0 0 0 0 0 0 0 0 0 0 0 0 0 0 0 0 0 0 0 0 0 0 0 0 0 0 0 0 0 0 0 0 0 0 0 0
0 0 0 0 0 0 0 0 0 0 0 0 0 0 0 0 0 0 0 0 0 0 0 0 0 0 0 0 0 0 0 0 0 0 0 0 0 0 0 0 0 0 0 0 0 0 0
0 0 0 0 0 0 0 0 0 0 0 0 0 0 0 0 0 0 0 0 0 0 0 0 0 0 0 0 0 0 0 0 0 0 0 0 0 0 0 0 0 0 0 0 0 0 0
0 0 0 0 0 0 0 0 0 0 0 0 0 0 0 0 0 0 0 0 0 0 0 0 0 0 0 0 0 0 0 0 0 0 0 0 0 0 0 0 0 0 0 0 0 0 0
0 0 0 0 0 0 0 0 0 0 0 0 0 0 0 0 0 0 0 0 0 0 0 0 0 0 0 0 0 0 0 0 0 0 0 0 0 0 0 0 0 0 0 0 0 0 0
Wind_Speed_500mb
47 38 28 20 16 12 8 4 3 6 6 7 8 10 9 9 9 11 10 6 1 7 12 14 15 19 25 13 16 10 7 9 13 17 20 21 19 11 4 6 6 2 5 5 20 20 26
51 48 41 30 21 16 13 9 5 4 5 8 8 8 8 8 9 11 10 7 3 6 10 13 16 19 23 8 15 10 8 14 20 20 20 18 14 20 6 10 7 9 14 13 16 19 17
51 50 48 43 31 21 15 11 8 6 5 6 6 7 7 7 8 10 10 8 5 6 9 12 16 21 15 7 12 8 12 17 16 13 16 17 12 17 16 5 13 8 10 10 14 16 8
49 49 50 48 43 33 20 12 6 3 3 3 5 6 6 5 7 8 9 8 7 6 8 11 15 19 11 6 4 9 10 15 11 12 19 10 16 14 1 5 13 11 11 6 9 12 28
44 47 48 48 48 44 35 20 9 3 0 2 3 4 4 4 4 6 7 7 7 7 8 10 12 12 7 10 2 3 6 12 9 8 13 8 13 6 4 9 10 14 2 4 5 7 9
41 44 45 47 47 46 44 36 20 8 3 3 3 4 3 3 3 3 4 5 6 7 8 11 12 8 3 23 12 7 5 9 7 10 3 6 8 8 9 10 5 4 5 6 5 6 1
38 39 41 43 45 46 45 43 36 18 6 3 5 5 3 4 5 4 4 2 1 1 9 8 11 15 16 20 13 3 3 7 5 8 5 11 15 3 1 5 10 10 8 7 5 8 5
35 37 39 40 42 43 45 45 43 31 14 3 2 3 5 6 8 11 21 12 11 4 11 12 16 23 22 17 8 7 6 5 10 6 5 13 5 4 13 13 14 9 6 5 9 6 5
33 35 37 38 39 40 42 43 44 39 23 9 2 4 8 9 8 12 17 19 12 9 3 11 14 17 9 4 4 3 5 4 10 11 9 12 5 13 5 7 9 2 7 3 10 9 5
30 33 35 36 37 39 39 40 42 43 32 17 4 5 11 8 10 12 21 14 14 13 9 11 6 12 15 7 3 4 3 3 8 8 6 9 5 5 10 6 6 3 5 5 9 4 4
27 30 33 35 36 37 37 38 38 38 37 23 8 6 15 10 10 18 12 8 11 6 5 4 5 3 16 13 6 4 5 4 8 6 12 4 11 6 8 3 4 8 7 6 5 4 7
26 29 31 33 35 37 37 37 37 36 34 30 16 6 22 9 10 11 3 4 5 12 5 7 3 5 9 3 5 7 4 7 8 11 10 2 3 4 10 4 6 5 2 12 9 6 6
26 29 31 32 34 35 36 37 37 36 33 29 21 2 17 9 4 7 3 6 10 7 8 3 3 5 5 6 3 4 5 9 5 7 6 10 6 8 3 4 6 16 14 9 11 11 7
26 29 31 33 34 35 36 36 36 37 34 30 24 7 14 17 3 6 6 10 3 6 9 9 6 4 12 8 2 5 6 4 10 9 5 6 9 4 5 5 3 7 9 9 5 3 10
25 28 31 34 35 36 36 37 36 36 36 31 24 11 3 12 15 2 2 7 12 10 5 12 5 5 2 1 6 9 5 7 1 3 10 7 6 7 5 4 9 3 1 6 12 4 4
26 28 30 32 35 36 37 37 35 34 34 33 27 10 5 12 19 4 9 9 8 9 10 4 2 3 4 5 6 8 9 3 5 3 5 7 1 3 6 6 14 4 9 6 6 1 6
28 29 31 32 34 36 37 38 37 33 31 28 22 4 10 18 15 4 6 11 10 17 4 3 5 4 6 5 5 3 6 1 2 5 10 7 8 10 5 1 7 5 3 11 8 8 8
28 29 30 32 35 35 35 36 37 34 28 21 11 5 11 23 6 5 4 8 8 15 16 11 5 5 4 3 5 4 8 1 5 4 7 4 9 5 13 4 3 1 2 8 10 5 1
29 30 29 29 30 31 32 32 32 33 30 25 16 7 6 17 6 2 8 8 10 7 7 6 6 4 3 7 6 4 5 8 7 7 11 10 4 6 15 12 8 9 4 9 9 6 10
31 30 29 28 28 29 29 28 29 26 25 21 8 5 5 8 11 9 4 9 11 18 8 2 6 7 7 5 10 7 4 11 8 8 12 7 6 12 11 12 5 9 4 4 9 6 6
36 34 31 30 29 26 26 25 26 22 18 13 7 2 4 2 7 6 3 4 6 14 11 10 5 5 11 6 5 5 4 3 9 6 6 8 5 7 10 10 5 9 12 8 14 11 11
32 31 29 30 30 28 27 24 22 20 12 6 4 2 3 0 5 1 5 3 4 11 4 9 2 6 7 13 15 16 12 8 10 3 5 4 5 3 6 6 3 9 17 17 15 10 14
24 24 23 24 25 24 24 22 18 16 9 1 0 2 2 3 4 5 3 1 2 6 8 14 13 5 8 15 25 18 21 16 14 18 9 6 10 6 8 8 10 7 8 5 6 6 9
19 18 18 18 18 17 17 15 11 11 9 3 2 2 2 4 1 3 1 3 5 4 6 17 11 2 4 19 33 29 25 19 21 14 9 11 9 4 5 7 3 11 5 11 10 6 9
18 16 14 13 13 12 13 11 8 6 6 5 2 1 2 2 3 7 4 5 16 12 7 8 7 12 28 3 9 9 10 7 5 12 7 7 10 5 5 4 12 11 2 4 6 13 15
16 14 12 11 10 9 10 10 8 8 6 4 4 2 3 2 7 2 3 4 3 6 13 5 4 2 8 9 6 10 10 11 6 3 8 10 11 8 5 5 8 13 4 5 8 9 21
20 18 16 14 12 9 8 8 8 7 9 8 8 8 6 4 7 5 3 3 4 3 4 9 18 5 6 5 5 7 9 9 9 13 9 4 4 10 5 8 14 16 14 8 10 15 14
20 19 18 16 15 13 10 10 10 8 6 10 12 11 12 7 16 11 8 8 3 2 1 13 9 5 5 5 7 8 7 11 7 11 13 15 13 9 5 4 14 21 13 15 15 9 18
19 18 17 16 14 12 11 11 12 12 8 6 16 18 16 16 13 12 17 31 32 19 14 7 5 8 4 6 1 4 4 3 9 8 3 4 15 11 17 15 10 33 16 24 18 17 20
Wind_Direction_500mb
52 52 54 59 65 69 74 96 168 199 203 201 188 177 178 187 187 185 191 201 292 10 10 358 351 346 353 356 57 52 77 37 21 14 2 3 25 16 10 318 105 333 47 161 120 118 123
52 51 50 49 51 54 59 65 81 124 151 159 163 173 182 187 188 192 202 221 290 358 0 353 345 344 343 359 34 28 352 360 349 344 346 9 3 5 42 357 47 346 80 83 96 73 111
48 48 48 47 45 46 51 59 71 96 129 156 170 178 175 179 191 200 212 233 282 330 344 343 339 341 339 340 334 351 15 15 22 17 358 356 355 0 325 11 9 63 58 48 135 130 96
47 46 46 45 43 42 42 45 54 76 120 158 163 165 166 182 195 208 222 238 262 296 319 328 333 335 294 341 31 29 13 16 20 29 7 352 350 331 1 354 34 52 54 80 315 137 173
46 45 44 43 41 39 38 31 23 6 209 157 162 167 174 183 200 214 231 241 254 278 297 303 316 329 324 344 46 341 359 4 19 5 357 323 314 32 34 78 25 9 90 83 31 43 163
42 42 42 42 41 39 35 31 23 5 303 235 218 208 202 169 179 181 216 218 255 272 288 295 285 310 321 342 347 322 273 317 345 336 27 30 49 60 32 65 183 230 106 41 88 333 271
38 37 37 38 38 38 36 32 27 18 5 250 229 227 190 158 146 127 72 108 330 153 288 246 285 292 304 326 318 64 334 310 359 65 42 22 70 80 326 91 109 101 83 26 308 16 323
31 31 32 31 35 33 34 32 28 23 23 27 196 185 157 153 127 70 61 76 53 352 317 273 265 271 292 309 311 52 51 55 48 48 27 34 64 149 119 92 97 79 100 334 294 313 47
23 24 24 25 27 28 30 29 29 25 23 32 76 146 153 142 74 55 66 34 26 9 315 290 249 261 271 220 282 340 31 108 78 55 43 119 163 163 93 64 68 82 133 254 227 340 53
15 15 15 17 18 21 22 24 26 25 23 21 45 154 158 125 68 87 45 44 18 350 61 283 241 237 218 204 255 161 90 130 46 129 132 97 79 87 56 57 98 16 219 247 273 69 228
6 5 7 7 9 12 13 15 18 22 21 14 11 171 170 112 80 58 26 35 350 352 58 251 216 198 174 167 155 116 142 86 120 104 91 257 144 100 71 285 195 221 14 30 358 100 85
355 357 358 359 0 2 5 7 8 11 17 11 3 192 176 139 82 57 79 352 356 43 264 337 200 165 109 118 171 133 112 86 107 77 34 64 32 109 189 81 47 330 41 46 56 75 49
343 347 348 350 351 353 356 358 0 1 5 8 4 262 207 183 112 38 320 319 41 125 327 307 246 151 126 167 177 109 69 23 103 80 6 11 341 319 138 41 18 48 45 345 1 11 224
335 337 339 342 343 345 347 349 352 354 354 2 1 338 228 210 208 9 9 52 125 255 263 287 340 87 167 163 244 72 65 73 35 82 94 139 323 352 21 109 157 45 127 148 270 288 278
328 331 334 337 338 339 340 340 344 347 347 352 357 348 266 211 193 292 97 73 213 212 292 327 331 124 47 348 162 92 73 159 147 139 142 138 275 319 71 119 115 151 73 166 105 7 25
321 325 328 331 333 336 338 336 337 340 343 344 352 3 94 166 170 180 83 220 234 222 328 334 144 68 121 360 141 98 167 239 136 81 147 181 25 12 315 98 44 142 148 47 14 249 307
310 315 320 325 327 330 335 336 334 338 338 340 349 53 30 156 150 118 148 229 262 277 316 258 235 102 111 115 85 74 170 269 209 79 108 113 107 292 349 74 172 31 1 54 111 122 174
306 310 312 318 322 325 329 333 336 338 343 339 357 28 6 177 104 58 158 205 308 287 312 234 123 101 121 98 94 121 169 142 353 138 76 62 130 206 238 297 261 150 139 118 113 246 114
295 300 307 312 316 324 329 331 334 341 351 357 343 305 9 185 135 292 300 291 260 280 274 180 154 166 145 140 96 77 96 22 62 76 146 182 31 23 350 357 9 75 65 108 103 85 202
284 289 297 304 310 314 322 333 335 336 342 350 340 6 31 101 89 121 52 304 315 332 281 78 131 95 97 97 32 138 103 10 25 91 94 96 109 148 187 216 178 294 246 97 129 120 213
280 282 286 291 298 308 317 326 335 335 334 343 2 44 82 339 33 73 125 355 339 352 345 357 43 147 151 126 73 115 107 69 37 96 67 98 149 185 247 242 217 239 259 227 195 206 184
276 280 282 283 286 293 302 313 326 338 332 328 10 40 35 18 328 67 3 59 50 322 294 323 286 157 178 154 178 197 144 180 193 164 98 28 182 144 292 5 166 272 278 275 236 224 249
272 279 285 288 290 291 295 304 316 334 346 19 57 89 333 350 7 103 198 168 211 338 270 250 298 197 194 222 208 202 174 175 176 155 150 121 131 99 266 334 317 341 234 239 284 188 162
264 272 280 289 298 302 302 302 310 337 359 33 56 212 176 270 71 149 33 293 259 257 247 307 353 196 306 141 115 104 82 97 131 71 110 130 104 101 238 354 344 239 275 241 238 227 211
255 260 270 284 298 308 313 315 293 296 333 337 306 208 168 202 237 289 267 291 306 293 248 265 343 319 167 142 61 53 356 21 52 47 89 104 121 94 150 193 292 319 181 127 174 274 200
254 261 270 278 293 308 319 322 303 262 268 283 262 258 193 85 241 237 308 338 320 323 327 280 322 8 208 73 86 149 188 199 211 129 82 83 88 119 138 165 231 240 260 148 126 305 217
243 247 255 265 276 291 313 321 315 290 254 255 244 237 229 256 245 223 215 215 307 336 260 315 338 338 30 96 112 161 217 178 173 178 172 112 39 175 152 220 286 244 183 141 83 240 210
236 242 249 256 262 269 279 294 307 308 283 240 236 238 227 241 259 248 231 214 236 326 92 333 353 332 33 91 151 204 173 214 147 183 179 172 157 196 108 163 277 175 118 164 220 226 216
224 229 238 249 256 261 268 274 284 291 301 253 223 233 242 247 261 265 248 247 259 262 286 291 277 302 304 90 200 104 204 143 164 215 54 204 186 190 175 210 238 193 215 227 260 237 242
Wind_Speed_850mb
47 38 28 20 16 12 8 4 3 6 6 7 8 10 9 9 9 11 10 6 1 7 12 14 15 19 25 13 16 10 7 9 13 17 20 21 19 11 4 6 6 2 5 5 20 20 26
51 48 41 30 21 16 13 9 5 4 5 8 8 8 8 8 9 11 10 7 3 6 10 13 16 19 23 8 15 10 8 14 20 20 20 18 14 20 6 10 7 9 14 13 16 19 17
51 50 48 43 31 21 15 11 8 6 5 6 6 7 7 7 8 10 10 8 5 6 9 12 16 21 15 7 12 8 12 17 16 13 16 17 12 17 16 5 13 8 10 10 14 16 8
49 49 50 48 43 33 20 12 6 3 3 3 5 6 6 5 7 8 9 8 7 6 8 11 15 19 11 6 4 9 10 15 11 12 19 10 16 14 1 5 13 11 11 6 9 12 28
44 47 48 48 48 44 35 20 9 3 0 2 3 4 4 4 4 6 7 7 7 7 8 10 12 12 7 10 2 3 6 12 9 8 13 8 13 6 4 9 10 14 2 4 5 7 9
41 44 45 47 47 46 44 36 20 8 3 3 3 4 3 3 3 3 4 5 6 7 8 11 12 8 3 23 12 7 5 9 7 10 3 6 8 8 9 10 5 4 5 6 5 6 1
38 39 41 43 45 46 45 43 36 18 6 3 5 5 3 4 5 4 4 2 1 1 9 8 11 15 16 20 13 3 3 7 5 8 5 11 15 3 1 5 10 10 8 7 5 8 5
35 37 39 40 42 43 45 45 43 31 14 3 2 3 5 6 8 11 21 12 11 4 11 12 16 23 22 17 8 7 6 5 10 6 5 13 5 4 13 13 14 9 6 5 9 6 5
33 35 37 38 39 40 42 43 44 39 23 9 2 4 8 9 8 12 17 19 12 9 3 11 14 17 9 4 4 3 5 4 10 11 9 12 5 13 5 7 9 2 7 3 10 9 5
30 33 35 36 37 39 39 40 42 43 32 17 4 5 11 8 10 12 21 14 14 13 9 11 6 12 15 7 3 4 3 3 8 8 6 9 5 5 10 6 6 3 5 5 9 4 4
27 30 33 35 36 37 37 38 38 38 37 23 8 6 15 10 10 18 12 8 11 6 5 4 5 3 16 13 6 4 5 4 8 6 12 4 11 6 8 3 4 8 7 6 5 4 7
26 29 31 33 35 37 37 37 37 36 34 30 16 6 22 9 10 11 3 4 5 12 5 7 3 5 9 3 5 7 4 7 8 11 10 2 3 4 10 4 6 5 2 12 9 6 6
26 29 31 32 34 35 36 37 37 36 33 29 21 2 17 9 4 7 3 6 10 7 8 3 3 5 5 6 3 4 5 9 5 7 6 10 6 8 3 4 6 16 14 9 11 11 7
26 29 31 33 34 35 36 36 36 37 34 30 24 7 14 17 3 6 6 10 3 6 9 9 6 4 12 8 2 5 6 4 10 9 5 6 9 4 5 5 3 7 9 9 5 3 10
25 28 31 34 35 36 36 37 36 36 36 31 24 11 3 12 15 2 2 7 12 10 5 12 5 5 2 1 6 9 5 7 1 3 10 7 6 7 5 4 9 3 1 6 12 4 4
26 28 30 32 35 36 37 37 35 34 34 33 27 10 5 12 19 4 9 9 8 9 10 4 2 3 4 5 6 8 9 3 5 3 5 7 1 3 6 6 14 4 9 6 6 1 6
28 29 31 32 34 36 37 38 37 33 31 28 22 4 10 18 15 4 6 11 10 17 4 3 5 4 6 5 5 3 6 1 2 5 10 7 8 10 5 1 7 5 3 11 8 8 8
28 29 30 32 35 35 35 36 37 34 28 21 11 5 11 23 6 5 4 8 8 15 16 11 5 5 4 3 5 4 8 1 5 4 7 4 9 5 13 4 3 1 2 8 10 5 1
29 30 29 29 30 31 32 32 32 33 30 25 16 7 6 17 6 2 8 8 10 7 7 6 6 4 3 7 6 4 5 8 7 7 11 10 4 6 15 12 8 9 4 9 9 6 10
31 30 29 28 28 29 29 28 29 26 25 21 8 5 5 8 11 9 4 9 11 18 8 2 6 7 7 5 10 7 4 11 8 8 12 7 6 12 11 12 5 9 4 4 9 6 6
36 34 31 30 29 26 26 25 26 22 18 13 7 2 4 2 7 6 3 4 6 14 11 10 5 5 11 6 5 5 4 3 9 6 6 8 5 7 10 10 5 9 12 8 14 11 11
32 31 29 30 30 28 27 24 22 20 12 6 4 2 3 0 5 1 5 3 4 11 4 9 2 6 7 13 15 16 12 8 10 3 5 4 5 3 6 6 3 9 17 17 15 10 14
24 24 23 24 25 24 24 22 18 16 9 1 0 2 2 3 4 5 3 1 2 6 8 14 13 5 8 15 25 18 21 16 14 18 9 6 10 6 8 8 10 7 8 5 6 6 9
19 18 18 18 18 17 17 15 11 11 9 3 2 2 2 4 1 3 1 3 5 4 6 17 11 2 4 19 33 29 25 19 21 14 9 11 9 4 5 7 3 11 5 11 10 6 9
18 16 14 13 13 12 13 11 8 6 6 5 2 1 2 2 3 7 4 5 16 12 7 8 7 12 28 3 9 9 10 7 5 12 7 7 10 5 5 4 12 11 2 4 6 13 15
16 14 12 11 10 9 10 10 8 8 6 4 4 2 3 2 7 2 3 4 3 6 13 5 4 2 8 9 6 10 10 11 6 3 8 10 11 8 5 5 8 13 4 5 8 9 21
20 18 16 14 12 9 8 8 8 7 9 8 8 8 6 4 7 5 3 3 4 3 4 9 18 5 6 5 5 7 9 9 9 13 9 4 4 10 5 8 14 16 14 8 10 15 14
20 19 18 16 15 13 10 10 10 8 6 10 12 11 12 7 16 11 8 8 3 2 1 13 9 5 5 5 7 8 7 11 7 11 13 15 13 9 5 4 14 21 13 15 15 9 18
19 18 17 16 14 12 11 11 12 12 8 6 16 18 16 16 13 12 17 31 32 19 14 7 5 8 4 6 1 4 4 3 9 8 3 4 15 11 17 15 10 33 16 24 18 17 20
Wind_Direction_850mb
52 52 54 59 65 69 74 96 168 199 203 201 188 177 178 187 187 185 191 201 292 10 10 358 351 346 353 356 57 52 77 37 21 14 2 3 25 16 10 318 105 333 47 161 120 118 123
52 51 50 49 51 54 59 65 81 124 151 159 163 173 182 187 188 192 202 221 290 358 0 353 345 344 343 359 34 28 352 360 349 344 346 9 3 5 42 357 47 346 80 83 96 73 111
48 48 48 47 45 46 51 59 71 96 129 156 170 178 175 179 191 200 212 233 282 330 344 343 339 341 339 340 334 351 15 15 22 17 358 356 355 0 325 11 9 63 58 48 135 130 96
47 46 46 45 43 42 42 45 54 76 120 158 163 165 166 182 195 208 222 238 262 296 319 328 333 335 294 341 31 29 13 16 20 29 7 352 350 331 1 354 34 52 54 80 315 137 173
46 45 44 43 41 39 38 31 23 6 209 157 162 167 174 183 200 214 231 241 254 278 297 303 316 329 324 344 46 341 359 4 19 5 357 323 314 32 34 78 25 9 90 83 31 43 163
42 42 42 42 41 39 35 31 23 5 303 235 218 208 202 169 179 181 216 218 255 272 288 295 285 310 321 342 347 322 273 317 345 336 27 30 49 60 32 65 183 230 106 41 88 333 271
38 37 37 38 38 38 36 32 27 18 5 250 229 227 190 158 146 127 72 108 330 153 288 246 285 292 304 326 318 64 334 310 359 65 42 22 70 80 326 91 109 101 83 26 308 16 323
31 31 32 31 35 33 34 32 28 23 23 27 196 185 157 153 127 70 61 76 53 352 317 273 265 271 292 309 311 52 51 55 48 48 27 34 64 149 119 92 97 79 100 334 294 313 47
23 24 24 25 27 28 30 29 29 25 23 32 76 146 153 142 74 55 66 34 26 9 315 290 249 261 271 220 282 340 31 108 78 55 43 119 163 163 93 64 68 82 133 254 227 340 53
15 15 15 17 18 21 22 24 26 25 23 21 45 154 158 125 68 87 45 44 18 350 61 283 241 237 218 204 255 161 90 130 46 129 132 97 79 87 56 57 98 16 219 247 273 69 228
6 5 7 7 9 12 13 15 18 22 21 14 11 171 170 112 80 58 26 35 350 352 58 251 216 198 174 167 155 116 142 86 120 104 91 257 144 100 71 285 195 221 14 30 358 100 85
355 357 358 359 0 2 5 7 8 11 17 11 3 192 176 139 82 57 79 352 356 43 264 337 200 165 109 118 171 133 112 86 107 77 34 64 32 109 189 81 47 330 41 46 56 75 49
343 347 348 350 351 353 356 358 0 1 5 8 4 262 207 183 112 38 320 319 41 125 327 307 246 151 126 167 177 109 69 23 103 80 6 11 341 319 138 41 18 48 45 345 1 11 224
335 337 339 342 343 345 347 349 352 354 354 2 1 338 228 210 208 9 9 52 125 255 263 287 340 87 167 163 244 72 65 73 35 82 94 139 323 352 21 109 157 45 127 148 270 288 278
328 331 334 337 338 339 340 340 344 347 347 352 357 348 266 211 193 292 97 73 213 212 292 327 331 124 47 348 162 92 73 159 147 139 142 138 275 319 71 119 115 151 73 166 105 7 25
321 325 328 331 333 336 338 336 337 340 343 344 352 3 94 166 170 180 83 220 234 222 328 334 144 68 121 360 141 98 167 239 136 81 147 181 25 12 315 98 44 142 148 47 14 249 307
310 315 320 325 327 330 335 336 334 338 338 340 349 53 30 156 150 118 148 229 262 277 316 258 235 102 111 115 85 74 170 269 209 79 108 113 107 292 349 74 172 31 1 54 111 122 174
306 310 312 318 322 325 329 333 336 338 343 339 357 28 6 177 104 58 158 205 308 287 312 234 123 101 121 98 94 121 169 142 353 138 76 62 130 206 238 297 261 150 139 118 113 246 114
295 300 307 312 316 324 329 331 334 341 351 357 343 305 9 185 135 292 300 291 260 280 274 180 154 166 145 140 96 77 96 22 62 76 146 182 31 23 350 357 9 75 65 108 103 85 202
284 289 297 304 310 314 322 333 335 336 342 350 340 6 31 101 89 121 52 304 315 332 281 78 131 95 97 97 32 138 103 10 25 91 94 96 109 148 187 216 178 294 246 97 129 120 213
280 282 286 291 298 308 317 326 335 335 334 343 2 44 82 339 33 73 125 355 339 352 345 357 43 147 151 126 73 115 107 69 37 96 67 98 149 185 247 242 217 239 259 227 195 206 184
276 280 282 283 286 293 302 313 326 338 332 328 10 40 35 18 328 67 3 59 50 322 294 323 286 157 178 154 178 197 144 180 193 164 98 28 182 144 292 5 166 272 278 275 236 224 249
272 279 285 288 290 291 295 304 316 334 346 19 57 89 333 350 7 103 198 168 211 338 270 250 298 197 194 222 208 202 174 175 176 155 150 121 131 99 266 334 317 341 234 239 284 188 162
264 272 280 289 298 302 302 302 310 337 359 33 56 212 176 270 71 149 33 293 259 257 247 307 353 196 306 141 115 104 82 97 131 71 110 130 104 101 238 354 344 239 275 241 238 227 211
255 260 270 284 298 308 313 315 293 296 333 337 306 208 168 202 237 289 267 291 306 293 248 265 343 319 167 142 61 53 356 21 52 47 89 104 121 94 150 193 292 319 181 127 174 274 200
254 261 270 278 293 308 319 322 303 262 268 283 262 258 193 85 241 237 308 338 320 323 327 280 322 8 208 73 86 149 188 199 211 129 82 83 88 119 138 165 231 240 260 148 126 305 217
243 247 255 265 276 291 313 321 315 290 254 255 244 237 229 256 245 223 215 215 307 336 260 315 338 338 30 96 112 161 217 178 173 178 172 112 39 175 152 220 286 244 183 141 83 240 210
236 242 249 256 262 269 279 294 307 308 283 240 236 238 227 241 259 248 231 214 236 326 92 333 353 332 33 91 151 204 173 214 147 183 179 172 157 196 108 163 277 175 118 164 220 226 216
224 229 238 249 256 261 268 274 284 291 301 253 223 233 242 247 261 265 248 247 259 262 286 291 277 302 304 90 200 104 204 143 164 215 54 204 186 190 175 210 238 193 215 227 260 237 242